Waarnemingen

Advertentie
Mijn weer
Andernach, Duitsland (10520): temperatuur & dauwpunt: 18.02.2017 16:00:00 - 24.02.2017 16:00:00 (CET)Andernach, Duitsland (10520): temperatuur 5cm & temperatuur -5cm: 18.02.2017 16:00:00 - 24.02.2017 16:00:00 (CET)Andernach, Duitsland (10520): temperatuur -20cm & temperatuur -100cm: 18.02.2017 16:00:00 - 24.02.2017 16:00:00 (CET)Andernach, Duitsland (10520): windsnelheid & windstoten: 18.02.2017 16:00:00 - 24.02.2017 16:00:00 (CET)Andernach, Duitsland (10520): windrichting: 18.02.2017 16:00:00 - 24.02.2017 16:00:00 (CET)Andernach, Duitsland (10520): luchtdruk: 18.02.2017 16:00:00 - 24.02.2017 16:00:00 (CET)Andernach, Duitsland (10520): zicht: 18.02.2017 16:00:00 - 24.02.2017 16:00:00 (CET)Andernach, Duitsland (10520): Zonneschijnduur: 18.02.2017 16:00:00 - 24.02.2017 16:00:00 (CET)Andernach, Duitsland (10520): neerslag: 18.02.2017 16:00:00 - 24.02.2017 16:00:00 (CET)
Datum & Tijd tt [°C] td [°C] tt 5cm [°C] tt -5cm [°C] tt -20cm [°C] tt -100cm [°C] ff [km/u] ff [kn] fx [km/u] fx [kn] dd ppp [hPa] vv [km] sd [min] rr [mm]
24.02.2017 16:00:00 8,1 -0,6 10,4 7,3 5,7 5,3 15 8 27 15 NW 1015,1 55 60 0,0
24.02.2017 15:00:00 7,3 -1,7 9,1 6,7 5,6 5,3 13 7 27 15 NW 1014,9 70 10 0,0
24.02.2017 14:00:00 7,1 -0,5 7,6 6,8 5,4 5,2 9 5 24 13 NW 1014,7 70 0 0,0
24.02.2017 13:00:00 7,2 0,1 8,1 6,6 5,4 5,2 10 5 31 17 NNW 1014,1 70 22 0,0
24.02.2017 12:00:00 6,4 -1,0 6,3 5,6 5,3 5,2 13 7 32 17 NNW 1013,9 70 21 0,0
24.02.2017 11:00:00 6,3 1,0 6,7 4,5 5,4 5,2 10 6 37 20 NNW 1013,3 70 10 0,0
24.02.2017 10:00:00 5,5 0,7 3,8 4,1 5,5 5,2 14 7 37 20 NW 1012,4 70 22 0,0
24.02.2017 09:00:00 4,7 0,7 2,7 3,8 5,7 5,2 13 7 31 17 NW 1011,2 70 0 0,0
24.02.2017 08:00:00 4,1 0,6 1,4 4,0 5,8 5,2 13 7 28 15 WNW 1010,3 70 0 0,0
24.02.2017 07:00:00 4,1 1,0 1,5 4,6 5,9 5,2 13 7 30 16 WNW 1009,4 70 0 0,2
24.02.2017 06:00:00 4,1 1,7 3,0 4,8 6,0 5,2 14 7 35 19 W 1008,5 12 0 0,2
24.02.2017 05:00:00 4,6 1,7 3,4 5,0 6,1 5,2 21 11 43 23 WNW 1007,0 26 0 0,3
24.02.2017 04:00:00 5,9 0,7 4,5 5,2 6,2 5,1 21 12 41 22 WNW 1005,8 70 0 0,0
24.02.2017 03:00:00 6,7 0,9 5,4 5,3 6,3 5,1 23 12 52 28 W 1004,5 70 0 0,0
24.02.2017 02:00:00 6,6 1,7 5,1 5,4 6,4 5,1 18 10 49 27 W 1002,5 70 0 0,0
24.02.2017 01:00:00 7,0 1,0 4,7 5,6 6,5 5,1 27 14 60 32 W 1000,4 70 0 0,1
24.02.2017 00:00:00 6,4 2,4 4,4 6,0 6,6 5,1 29 15 57 31 W 999,2 45 0 0,3
23.02.2017 23:00:00 8,4 1,4 6,9 6,2 6,7 5,1 23 13 50 27 WZW 997,8 70 0 0,0
23.02.2017 22:00:00 8,7 1,4 7,2 6,3 6,8 5,1 24 13 53 29 W 997,6 70 0 0,0
23.02.2017 21:00:00 8,4 2,3 6,5 6,6 6,9 5,1 27 15 53 29 WZW 997,3 70 0 0,0
23.02.2017 20:00:00 9,0 2,8 7,1 6,9 7,0 5,1 24 13 54 29 WZW 996,8 70 0 0,1
23.02.2017 19:00:00 9,7 3,2 7,4 7,3 7,0 5,0 23 12 58 31 WZW 996,0 70 0 0,0
23.02.2017 18:00:00 10,1 3,6 7,4 7,9 7,0 5,0 27 14 51 28 W 995,6 70 12 0,1
23.02.2017 17:00:00 9,6 6,7 8,2 8,0 7,0 5,0 18 10 45 25 W 995,6 35 0 0,2
23.02.2017 16:00:00 9,8 5,7 9,6 8,0 7,0 5,0 26 14 53 29 ZW 995,9 70 0 0,0
23.02.2017 15:00:00 9,5 5,8 9,4 7,9 7,0 5,0 15 8 39 21 ZZW 996,9 62 0 0,0
23.02.2017 14:00:00 9,7 4,8 9,3 8,0 7,0 5,0 20 11 44 24 ZW 999,3 47 0 0,0
23.02.2017 13:00:00 9,7 4,8 9,5 7,8 7,0 5,0 23 13 42 23 ZW 1000,4 39 0 0,0
23.02.2017 12:00:00 9,6 5,2 9,3 7,7 7,0 5,0 19 11 48 26 ZW 1001,0 37 0 0,0
23.02.2017 11:00:00 9,5 5,3 9,1 7,7 7,1 5,0 23 13 51 27 ZW 1002,1 43 0 0,0
23.02.2017 10:00:00 9,5 5,4 9,1 7,7 7,1 5,0 25 13 52 28 WZW 1003,1 48 0 0,0
23.02.2017 09:00:00 9,7 6,0 9,1 7,8 7,1 5,0 25 13 42 23 ZW 1003,8 44 0 0,0
23.02.2017 08:00:00 9,7 6,4 9,1 7,9 7,1 4,9 23 12 43 23 ZW 1004,4 40 0 0,0
23.02.2017 07:00:00 10,0 6,7 9,3 8,0 7,2 4,9 19 10 32 17 WZW 1005,0 60 0 0,0
23.02.2017 06:00:00 10,3 7,2 9,6 8,0 7,2 4,9 19 10 35 19 WZW 1005,8 70 0 0,0
23.02.2017 05:00:00 10,6 7,3 9,7 8,1 7,2 4,9 20 11 37 20 WZW 1006,1 70 0 0,0
23.02.2017 04:00:00 10,6 7,5 9,6 8,2 7,2 4,9 23 12 38 20 WZW 1006,7 70 0 0,0
23.02.2017 03:00:00 10,7 7,6 9,9 8,2 7,2 4,9 21 11 36 19 ZW 1007,4 70 0 0,0
23.02.2017 02:00:00 10,8 7,8 10,1 8,3 7,3 4,9 25 13 39 21 WZW 1007,6 70 0 0,0
23.02.2017 01:00:00 10,9 7,9 10,1 8,3 7,3 4,9 25 13 40 21 WZW 1007,8 70 0 0,0
23.02.2017 00:00:00 11,2 7,7 10,2 8,4 7,3 4,9 21 11 39 21 WZW 1008,0 70 0 0,0
22.02.2017 23:00:00 11,1 8,0 10,0 8,5 7,3 4,9 16 9 34 18 WZW 1008,2 70 0 0,0
22.02.2017 22:00:00 11,1 8,0 10,2 8,6 7,3 4,9 20 11 37 20 WZW 1008,4 70 0 0,0
22.02.2017 21:00:00 11,0 8,3 9,9 8,8 7,4 4,8 25 14 37 20 ZW 1008,4 65 0 0,0
22.02.2017 20:00:00 10,9 8,6 10,1 8,9 7,4 4,8 19 10 35 19 ZW 1008,4 70 0 0,0
22.02.2017 19:00:00 11,1 8,5 10,2 9,1 7,3 4,8 14 7 30 16 ZW 1008,7 36 0 0,0
22.02.2017 18:00:00 11,3 8,4 10,6 9,3 7,3 4,8 16 8 46 25 ZW 1008,2 70 0 0,0
22.02.2017 17:00:00 11,9 7,9 11,2 9,6 7,2 4,8 26 14 42 23 WZW 1007,9 70 0 0,0
22.02.2017 16:00:00 11,9 8,0 11,8 9,8 7,1 4,8 29 16 45 24 ZW 1008,4 70 0 0,0
22.02.2017 15:00:00 12,2 7,8 12,3 9,7 7,0 4,8 27 15 43 23 WZW 1008,8 70 0 0,0
22.02.2017 14:00:00 12,4 7,3 12,3 9,6 6,9 4,8 25 13 50 27 WZW 1009,6 70 0 0,0
22.02.2017 13:00:00 12,8 7,4 14,2 9,4 6,7 4,8 26 14 45 25 WZW 1009,6 70 8 0,0
22.02.2017 12:00:00 12,6 7,5 12,6 9,0 6,7 4,8 21 11 42 23 WZW 1010,4 70 0 0,0
22.02.2017 11:00:00 12,0 7,4 12,2 8,3 6,6 4,8 23 12 43 23 WZW 1010,3 70 0 0,0
22.02.2017 10:00:00 11,1 7,4 10,7 8,0 6,6 4,8 23 12 46 25 WZW 1010,1 70 0 0,0
22.02.2017 09:00:00 11,0 7,1 10,4 7,9 6,6 4,8 23 13 44 24 WZW 1009,8 70 0 0,0
22.02.2017 08:00:00 11,4 6,5 10,3 7,9 6,6 4,7 19 11 34 18 WZW 1010,0 70 0 0,0
22.02.2017 07:00:00 11,8 6,9 10,3 8,0 6,6 4,7 13 7 38 20 WZW 1010,4 70 0 0,0
22.02.2017 06:00:00 11,7 8,5 10,6 8,0 6,6 4,7 13 7 27 15 WZW 1010,5 68 0 0,0
22.02.2017 05:00:00 11,6 8,9 10,7 8,0 6,6 4,7 12 7 22 12 ZW 1011,2 70 0 0,0
22.02.2017 04:00:00 11,5 8,9 10,5 7,9 6,6 4,7 14 8 25 13 ZW 1011,5 70 0 0,0
22.02.2017 03:00:00 11,7 8,7 10,3 7,8 6,6 4,7 14 8 30 16 ZW 1012,2 70 0 0,0
22.02.2017 02:00:00 11,7 8,8 10,0 7,7 6,6 4,7 8 4 17 9 WZW 1012,8 70 0 0,0
22.02.2017 01:00:00 11,2 8,9 9,6 7,7 6,6 4,7 8 4 13 7 ZZW 1013,5 70 0 0,0
22.02.2017 00:00:00 9,7 9,0 8,8 7,6 6,6 4,7 4 2 15 8 N 1014,1 32 0 0,0
21.02.2017 23:00:00 9,0 9,0 8,1 7,6 6,7 4,7 2 1 5 3 W 1014,6 16 0 0,0
21.02.2017 22:00:00 8,6 8,6 7,9 7,8 6,7 4,7 0 0 6 3 N 1015,3 7 0 0,0
21.02.2017 21:00:00 8,5 8,5 7,5 8,1 6,7 4,7 3 2 5 3 NNO 1015,9 8 0 0,0
21.02.2017 20:00:00 9,1 9,1 8,2 8,4 6,7 4,7 0 0 3 2 N 1016,4 8 0 0,1
21.02.2017 19:00:00 9,4 8,9 8,4 8,7 6,7 4,7 0 0 5 3 N 1016,7 20 0 0,1
21.02.2017 18:00:00 10,1 8,6 9,2 9,0 6,6 4,7 3 2 12 7 WNW 1016,5 44 0 0,0
21.02.2017 17:00:00 10,2 8,6 9,7 9,2 6,5 4,7 8 5 26 14 NNW 1016,4 45 0 0,0
21.02.2017 16:00:00 10,8 8,0 10,4 9,5 6,4 4,7 11 6 26 14 NW 1016,6 36 0 0,0
21.02.2017 15:00:00 12,0 8,2 12,0 9,4 6,3 4,7 8 4 19 10 WNW 1016,4 70 0 0,0
21.02.2017 14:00:00 11,4 8,4 11,3 9,1 6,1 4,7 7 4 24 13 NW 1016,5 70 0 0,0
21.02.2017 13:00:00 11,0 8,4 11,0 8,9 6,0 4,6 10 6 40 21 NW 1016,8 36 0 0,0
21.02.2017 12:00:00 11,9 7,4 10,7 8,6 5,9 4,6 13 7 30 16 WNW 1016,6 70 0 0,0
21.02.2017 11:00:00 11,9 8,7 11,0 8,1 5,8 4,6 8 4 17 9 WNW 1016,4 34 0 0,0
21.02.2017 10:00:00 10,5 9,2 9,9 7,5 5,8 4,6 3 1 14 7 N 1016,2 26 0 0,0
21.02.2017 09:00:00 9,0 9,0 8,7 7,4 5,8 4,6 2 1 10 5 O 1016,2 5 0 0,1
21.02.2017 08:00:00 9,5 9,4 8,6 7,5 5,7 4,6 4 2 28 15 NNW 1015,6 13 0 0,1
21.02.2017 07:00:00 10,6 8,3 9,0 7,6 5,7 4,6 10 6 28 15 WNW 1015,0 70 0 0,2
21.02.2017 06:00:00 11,1 9,5 9,6 7,5 5,6 4,6 9 5 26 14 WNW 1014,7 70 0 0,0
21.02.2017 05:00:00 11,7 9,4 10,0 7,5 5,5 4,6 9 5 21 11 W 1014,5 66 0 0,0
21.02.2017 04:00:00 11,7 9,5 9,9 7,4 5,5 4,6 7 4 19 10 W 1014,4 70 0 0,1
21.02.2017 03:00:00 11,0 9,3 9,7 7,4 5,4 4,6 13 7 29 15 WZW 1014,6 33 0 0,0
21.02.2017 02:00:00 11,1 9,0 9,8 7,3 5,4 4,6 16 9 27 14 WZW 1015,1 63 0 0,0
21.02.2017 01:00:00 10,6 9,0 9,4 7,2 5,3 4,6 10 5 28 15 WZW 1015,5 39 0 0,2
21.02.2017 00:00:00 10,5 8,7 9,5 7,2 5,2 4,6 18 10 35 19 ZW 1015,7 13 0 0,0
20.02.2017 23:00:00 10,9 8,4 10,1 7,1 5,2 4,6 18 10 33 18 WZW 1016,1 49 0 0,0
20.02.2017 22:00:00 11,2 8,2 10,2 7,0 5,1 4,6 20 11 31 17 ZW 1016,2 70 0 0,0
20.02.2017 21:00:00 10,7 7,8 9,7 6,9 5,1 4,6 15 8 27 15 ZW 1016,6 70 0 0,0
20.02.2017 20:00:00 10,4 7,7 9,4 6,9 5,0 4,6 16 9 27 15 ZW 1017,0 70 0 0,0
20.02.2017 19:00:00 10,1 7,5 9,0 6,9 4,9 4,6 14 7 29 15 WZW 1016,8 70 0 0,0
20.02.2017 18:00:00 10,3 7,3 9,0 7,0 4,8 4,6 13 7 27 15 ZW 1016,8 70 0 0,0
20.02.2017 17:00:00 10,0 7,2 8,7 7,1 4,7 4,6 16 9 23 13 ZW 1016,6 70 0 0,1
20.02.2017 16:00:00 9,6 7,6 8,6 7,1 4,6 4,6 10 5 22 12 ZZW 1017,5 19 0 0,1
20.02.2017 15:00:00 9,7 7,1 8,6 7,1 4,4 4,6 15 8 29 16 ZW 1018,0 56 0 0,1
20.02.2017 14:00:00 10,0 6,9 9,5 7,0 4,2 4,6 16 9 32 17 ZW 1018,5 58 0 0,0
20.02.2017 13:00:00 10,3 6,8 10,0 6,7 4,0 4,6 16 9 32 18 ZW 1019,1 70 0 0,0
20.02.2017 12:00:00 10,1 6,6 9,9 6,1 3,9 4,6 18 10 31 17 ZW 1019,9 70 0 0,0
20.02.2017 11:00:00 9,3 6,5 9,1 5,5 3,8 4,6 12 7 24 13 ZZW 1020,2 47 0 0,0
20.02.2017 10:00:00 8,4 6,1 7,9 4,8 3,8 4,5 13 7 20 11 ZW 1020,9 37 0 0,0
20.02.2017 09:00:00 7,7 5,5 6,8 4,3 3,7 4,5 8 5 19 11 ZW 1021,2 26 0 0,0
20.02.2017 08:00:00 7,2 5,4 5,9 4,0 3,8 4,5 10 5 21 12 ZW 1021,1 18 0 0,0
20.02.2017 07:00:00 5,5 5,5 4,2 3,8 3,8 4,5 4 2 6 3 N 1021,1 6 0 0,0
20.02.2017 06:00:00 5,2 5,2 4,5 3,8 3,8 4,5 3 2 9 5 Z 1021,5 3,4 0 0,0
20.02.2017 05:00:00 5,2 5,2 3,6 3,9 3,8 4,5 3 1 5 3 ZO 1021,3 1,8 0 0,0
20.02.2017 04:00:00 4,8 4,8 3,6 4,0 3,9 4,5 4 2 6 4 OZO 1021,9 0,7 0 0,0
20.02.2017 03:00:00 4,7 4,7 3,5 4,1 3,9 4,5 2 1 5 3 NNO 1022,5 0,8 0 0,0
20.02.2017 02:00:00 4,9 4,9 3,5 4,2 3,9 4,5 3 1 4 2 W 1022,8 1,2 0 0,0
20.02.2017 01:00:00 5,4 5,4 3,9 4,4 3,9 4,5 2 1 4 2 NNW 1022,9 0,9 0 0,0
20.02.2017 00:00:00 5,4 5,4 4,6 4,5 3,9 4,5 2 1 9 5 NNO 1022,8 1,2 0 0,0
19.02.2017 23:00:00 5,4 5,4 5,0 4,6 3,9 4,5 4 2 6 4 ONO 1022,8 2,4 0 0,3
19.02.2017 22:00:00 5,4 5,4 4,7 4,7 3,8 4,5 2 1 4 2 Z 1022,7 2,6 0 0,0
19.02.2017 21:00:00 5,5 5,3 4,4 4,8 3,8 4,5 2 1 5 3 ZW 1022,3 2,6 0 0,1
19.02.2017 20:00:00 5,7 5,7 5,3 5,0 3,7 4,5 4 2 6 3 ZZW 1022,4 3,6 0 0,4
19.02.2017 19:00:00 6,5 5,5 5,5 5,2 3,6 4,5 4 2 9 5 N 1022,1 3,8 0 0,3
19.02.2017 18:00:00 7,0 4,9 5,7 5,4 3,4 4,5 2 1 7 4 WNW 1021,3 11 0 0,1
19.02.2017 17:00:00 7,5 4,1 6,6 5,6 3,2 4,5 6 3 8 4 NO 1021,3 15 0 0,0
19.02.2017 16:00:00 7,3 4,0 7,2 5,4 3,0 4,5 2 1 6 4 O 1021,8 15 0 0,1
19.02.2017 15:00:00 6,0 3,0 5,9 5,2 2,8 4,5 3 2 6 3 NO 1022,3 9 0 0,0
19.02.2017 14:00:00 5,4 2,2 6,0 4,6 2,6 4,5 0 0 8 4 N 1022,9 13 5 0,0
19.02.2017 13:00:00 3,3 1,1 5,1 2,8 2,6 4,5 3 1 6 3 N 1023,6 12 17 0,0
19.02.2017 12:00:00 1,0 0,7 2,1 1,2 2,7 4,5 3 1 7 4 OZO 1024,7 4,2 0 0,0
19.02.2017 11:00:00 -0,3 -0,3 0,1 1,2 2,8 4,5 3 1 5 3 O 1025,4 0,5 0 0,0
19.02.2017 10:00:00 -0,8 -0,8 -0,2 1,2 2,9 4,4 3 1 6 3 ZZO 1025,5 0,4 0 0,0
19.02.2017 09:00:00 -1,3 -1,3 -0,9 1,3 3,0 4,4 3 2 5 3 ZW 1025,7 0,3 0 0,0
19.02.2017 08:00:00 -1,3 -1,3 -1,1 1,3 3,1 4,4 3 2 7 4 ZZO 1025,8 0,2 0 0,0
19.02.2017 07:00:00 -1,2 -1,2 -1,0 1,4 3,2 4,4 0 0 7 4 N 1025,3 0,2 0 0,0
19.02.2017 06:00:00 -1,4 -1,4 -1,4 1,5 3,3 4,4 3 2 8 4 Z 1025,5 0,7 0 0,0
19.02.2017 05:00:00 -2,2 -2,4 -2,8 1,5 3,4 4,4 3 2 5 3 ZZW 1025,9 6 0 0,0
19.02.2017 04:00:00 -2,4 -2,4 -6,3 1,7 3,6 4,4 4 2 6 4 ZZW 1026,2 7 0 0,0
19.02.2017 03:00:00 -1,9 -1,9 -6,0 1,9 3,8 4,4 3 1 4 2 ZZW 1026,7 6 0 0,0
19.02.2017 02:00:00 -1,4 -1,4 -5,7 2,1 3,9 4,4 0 0 5 3 N 1026,9 6 0 0,0
19.02.2017 01:00:00 -0,7 -0,8 -4,4 2,4 4,1 4,4 5 3 9 5 Z 1027,0 8 0 0,0
19.02.2017 00:00:00 -0,2 -0,6 -3,6 2,7 4,3 4,4 2 1 9 5 W 1026,9 6 0 0,0
18.02.2017 23:00:00 0,6 0,0 -2,0 3,0 4,5 4,4 6 3 9 5 ZZW 1027,2 10 0 0,0
18.02.2017 22:00:00 1,0 0,4 -2,8 3,5 4,7 4,4 5 3 7 4 ZZW 1027,2 10 0 0,0
18.02.2017 21:00:00 2,5 1,0 -2,2 4,3 4,8 4,4 4 2 6 3 ZZW 1027,0 14 0 0,0
18.02.2017 20:00:00 4,8 1,5 -0,2 5,2 4,8 4,4 5 3 10 5 NNW 1027,1 14 0 0,0
18.02.2017 19:00:00 6,3 1,0 1,2 6,2 4,8 4,4 7 4 10 5 ZO 1027,1 29 0 0,0
18.02.2017 18:00:00 7,2 2,1 4,9 7,0 4,7 4,4 4 2 13 7 O 1027,2 35 0 0,0
18.02.2017 17:00:00 8,4 1,5 7,9 7,4 4,5 4,4 5 3 10 5 Z 1027,1 41 0 0,0
18.02.2017 16:00:00 8,6 0,9 8,6 7,5 4,3 4,4 4 2 12 7 Z 1027,2 39 0 0,0

tt = temperatuur
td = dauwpunt
tt 5cm = temperatuur 5cm
tt -5cm = temperatuur -5cm
tt -20cm = temperatuur -20cm
tt -100cm = temperatuur -100cm
ff = windsnelheid
fx = windstoten
dd = windrichting
ppp = luchtdruk
vv = zicht
sd = Zonneschijnduur
rr = neerslag

Weerstations in de omgeving